Вернуться в каталог

CZ-4B DEB

АктивенSSO
NORAD 37580·DEBRIS·🇨🇳 China

Запущен May 10, 1999 с Taiyuan Satellite Launch Center

Loading…

Ближайшие Пролёты (ближайшие 24 часа)

TLE

СвежийSource: Space-Track

Эпоха: Sep 13, 2026, 09:05 UTC

1 37580U 99025EKD 26256.37873019  .00000444  00000-0  26220-3 0  9994
2 37580  98.8014 293.8174 0124189 155.6032 217.8050 14.08844846190174

Отслеживайте CZ-4B DEB в реальном времени с AllMySat

Download on the App Store